Header for Extended Forecast Station List Page

Search by: ID | Name | Date | Parm | Value | Avg | % Avg
Sort by: ID | Name | Date | Parm | Value | Avg | % Avg

Enter search or view all records.

Click on id for station plot
#IDNameDateParmValueAvg% Avg
0HWRI1BIG LOST-AT HOWELL RANCH NEAR CHILLY10-07-2019DISCHARGE (KAF)2822124
1MACI1BIG LOST-MACKAY RESERVOIR NEAR MACKAY10-07-2019INFLOW (KAF)477695
2HALI1BIG WOOD-AT HAILEY10-07-2019DISCHARGE (KAF)4741116
3MAGI1BIG WOOD-MAGIC DAM10-07-2019INFLOW (KAF)3327120
4BITM8BITTERROOT-NEAR MISSOULA10-07-2019DISCHARGE (KAF)19523284
5BONM8BLACKFOOT-NEAR BONNER10-07-2019DISCHARGE (KAF)166138120
6BIGI1BOISE-AT GLENWOOD BRIDGE10-07-2019DISCHARGE (KAF)5839148
7LUCI1BOISE-LUCKY PEAK DAM10-07-2019INFLOW (KAF)29MM
8PARI1BOISE-NEAR PARMA10-07-2019DISCHARGE (KAF)20421296
9HOTI1BRUNEAU-NEAR HOT SPRINGS10-07-2019DISCHARGE (KAF)3526133
10BULO3BULLY CREEK-BULLY CREEK DAM10-07-2019INFLOW (KAF)32174
11BUDW1BUMPING-BUMPING LAKE DAM10-07-2019INFLOW (KAF)253474
12CHDW1CHELAN-LAKE CHELAN DAM10-07-2019INFLOW (KAF)242157154
13ABOM8CLARK FORK-ABOVE MISSOULA10-07-2019DISCHARGE (KAF)393352112
14DLGM8CLARK FORK-AT DEER LODGE10-07-2019DISCHARGE (KAF)6564101
15SRGM8CLARK FORK-AT ST REGIS10-07-2019DISCHARGE (KAF)73676596
16BELM8CLARK FORK-BELOW MISSOULA10-07-2019DISCHARGE (KAF)592589100
17CABI1CLARK FORK-CABINET GORGE DAM10-07-2019INFLOW (KAF)2765359977
18NOXM8CLARK FORK-NOXON RAPIDS DAM10-07-2019INFLOW (KAF)2523345873
19DRMM8CLARK FORK-NR DRUMMOND10-07-2019DISCHARGE (KAF)149MM
20CLUW1CLE ELUM-CLE ELUM LAKE10-07-2019INFLOW (KAF)8510085
21ORFI1CLEARWATER-AT OROFINO10-07-2019DISCHARGE (KAF)53662486
22SPDI1CLEARWATER-AT SPALDING10-07-2019DISCHARGE (KAF)993148567
23COEI1COEUR D ALENE-COEUR D ALENE LAKE10-07-2019INFLOW (KAF)33658358
24CIBW1COLUMBIA-AT INTL BOUNDARY10-07-2019DISCHARGE (KAF)18798MM
25BONO3COLUMBIA-BONNEVILLE DAM10-07-2019INFLOW (KAF)299623485986
26CHJW1COLUMBIA-CHIEF JOSEPH DAM10-07-2019INFLOW (KAF)2080120817100
27GCDW1COLUMBIA-GRAND COULEE DAM10-07-2019INFLOW (KAF)1981417361114
28JDAO3COLUMBIA-JOHN DAY DAM10-07-2019INFLOW (KAF)285722971296
29MCDW1COLUMBIA-MCNARY DAM10-07-2019INFLOW (KAF)275162888695
30PRWW1COLUMBIA-PRIEST RAPIDS DAM10-07-2019INFLOW (KAF)2199819774111
31RRHW1COLUMBIA-ROCKY REACH DAM10-07-2019INFLOW (KAF)2175021702100
32TDAO3COLUMBIA-THE DALLES DAM10-07-2019INFLOW (KAF)293133293089
33WANW1COLUMBIA-WANAPUM DAM10-07-2019INFLOW (KAF)2200419450113
34WELW1COLUMBIA-WELLS DAM10-07-2019INFLOW (KAF)2117521186100
35DEDI1DEADWOOD-NEAR LOWMAN10-07-2019INFLOW (KAF)181998
36MODO3DESCHUTES-AT MOODY NR BIGGS10-07-2019DISCHARGE (KAF)13421343100
37ARDW1ENTIAT-NEAR ARDENVOIR10-07-2019DISCHARGE (KAF)2622116
38CHEI1FALL RIVER-NEAR CHESTER10-07-2019DISCHARGE (KAF)122112110
39CFMM8FLATHEAD-AT COLUMBIA FALLS10-07-2019DISCHARGE (KAF)892120774
40KERM8FLATHEAD-KERR DAM10-07-2019INFLOW (KAF)1029150968
41TRYO3GRANDE RONDE-TROY10-07-2019DISCHARGE (KAF)20227175
42REXI1HENRYS FORK-AT REXBURG10-07-2019DISCHARGE (KAF)496431115
43ANTI1HENRYS FORK-AT ST. ANTHONY10-07-2019DISCHARGE (KAF)387340114
44IPDI1HENRYS FORK-ISLAND PARK DAM10-07-2019INFLOW (KAF)121119102
45HODO3HOOD-NEAR TUCKER BRIDGE10-07-2019DISCHARGE (KAF)242206117
46SERO3JOHN DAY-AT SERVICE CK10-07-2019DISCHARGE (KAF)13116380
47KADW1KACHESS-KACHESS DAM10-07-2019INFLOW (KAF)324276
48LAUW1KETTLE-AT LAURIER10-07-2019DISCHARGE (KAF)266128208
49PITW1KLICKITAT-NEAR PITT10-07-2019DISCHARGE (KAF)20825582
50BFEI1KOOTENAI-AT BONNERS FERRY10-07-2019STAGE (FT)MMM
51LEOI1KOOTENAI-AT LEONIA10-07-2019DISCHARGE (KAF)20561639125
52LYDM8KOOTENAI-LIBBY DAM10-07-2019INFLOW (KAF)951956100
53LWRI1LITTLE WOOD-LITTLE WOOD DAM10-07-2019INFLOW (KAF)2015131
54BERO3MALHEUR-AGENCY VALLEY DAM10-07-2019INFLOW (KAF)131589
55WRMO3MALHEUR-WARM SPRINGS DAM10-07-2019INFLOW (KAF)171796
56MYKO3MCKAY CREEK-NEAR PILOT ROCK10-07-2019DISCHARGE (KAF)1413105
57PATW1METHOW-NEAR PATEROS10-07-2019DISCHARGE (KAF)124101123
58WGCM8MF FLATHEAD-NEAR WEST GLACIER10-07-2019DISCHARGE (KAF)15817591
59CLFW1NACHES-NEAR CLIFFDEL10-07-2019DISCHARGE (KAF)569856
60NACW1NACHES-NEAR NACHES10-07-2019DISCHARGE (KAF)7270102
61DWRI1NF CLEARWATER-DWORSHAK DAM10-07-2019INFLOW (KAF)28447460
62FCFM8NF FLATHEAD-NEAR COLUMBIA FALLS10-07-2019DISCHARGE (KAF)16119981
63MONO3NF JOHN DAY-AT MONUMENT10-07-2019DISCHARGE (KAF)618572
64CSDI1NF PAYETTE-CASCADE DAM10-07-2019INFLOW (KAF)919399
65TONW1OKANOGAN-NEAR TONASKET10-07-2019DISCHARGE (KAF)25328290
66OWYO3OWYHEE-OWYHEE DAM10-07-2019INFLOW (KAF)8673117
67EMMI1PAYETTE-NEAR EMMETT10-07-2019DISCHARGE (KAF)26634776
68ALFW1PEND OREILLE-ALBENI FALLS DAM10-07-2019INFLOW (KAF)3009417372
69HOPI1PEND OREILLE-PEND OREILLE LAKE NR HOPE10-07-2019LAKE ELEVATION (FT)MMM
70PIHI1PORTNEUF-AT POCATELLO10-07-2019DISCHARGE (KAF)595999
71PRTI1PRIEST-NEAR PRIEST RIVER10-07-2019DISCHARGE (KAF)22223395
72RCCM8ROCK CREEK-NEAR CLINTON10-07-2019DISCHARGE (KAF)6251122
73WHBI1SALMON-AT WHITEBIRD10-07-2019DISCHARGE (KAF)1001109591
74ARAI1SF BOISE-ANDERSON RANCH DAM10-07-2019INFLOW (KAF)8373113
75HHWM8SF FLATHEAD-HUNGRY HORSE DAM10-07-2019INFLOW (KAF)23224694
76PLDI1SF SNAKE-PALISADES DAM10-07-2019INFLOW (KAF)678657103
77SIFI1SNAKE-AB EAGLE ROCK NR IDAHO FALLS10-07-2019DISCHARGE (KAF)931825113
78AFRI1SNAKE-AMERICAN FALLS RESERVOIR10-07-2019INFLOW (KAF)14971459103
79SNAI1SNAKE-AT BLACKFOOT10-07-2019DISCHARGE (KAF)801714112
80MILI1SNAKE-AT MILNER10-07-2019DISCHARGE (KAF)M505M
81WEII1SNAKE-AT WEISER10-07-2019DISCHARGE (KAF)2744358377
82SWAI1SNAKE-BELOW SWAN FALLS10-07-2019DISCHARGE (KAF)1883253174
83BRNI1SNAKE-BROWNLEE DAM10-07-2019INFLOW (KAF)2924367979
84IHDW1SNAKE-ICE HARBOR DAM10-07-2019INFLOW (KAF)5010725969
85JLKW4SNAKE-JACKSON LAKE AT DAM10-07-2019INFLOW (KAF)133112118
86LGSW1SNAKE-LITTLE GOOSE DAM10-07-2019INFLOW (KAF)4975728368
87LGDW1SNAKE-LOWER GRANITE DAM10-07-2019INFLOW (KAF)4975723169
88LMNW1SNAKE-LOWER MONUMENTAL DAM10-07-2019INFLOW (KAF)5010733168
89ALPW4SNAKE-NEAR ALPINE10-07-2019DISCHARGE (KAF)417407103
90ANAW1SNAKE-NEAR ANATONE10-07-2019DISCHARGE (KAF)3981553972
91BFTI1SNAKE-NEAR BLACKFOOT10-07-2019DISCHARGE (KAF)823771107
92HEII1SNAKE-NEAR HEISE10-07-2019DISCHARGE (KAF)639637100
93JKSW4SNAKE-NEAR JACKSON10-07-2019DISCHARGE (KAF)333320104
94SHYI1SNAKE-NEAR SHELLEY10-07-2019DISCHARGE (KAF)922802115
95LLKW1SPOKANE-AT LONGLAKE10-07-2019INFLOW (KAF)657103464
96SPOW1SPOKANE-AT SPOKANE10-07-2019DISCHARGE (KAF)467MM
97SJMI1ST JOE-AT ST MARIES10-07-2019STAGE (FT)MMM
98SATI1ST MARIES-NEAR SANTA10-07-2019DISCHARGE (KAF)172861
99STRM8ST. REGIS-NEAR ST. REGIS10-07-2019DISCHARGE (KAF)203656
100TNAW1TEANAWAY-BELOW FORKS10-07-2019DISCHARGE (KAF)163445
101TEAI1TETON-NEAR ST. ANTHONY10-07-2019DISCHARGE (KAF)113109103
102RILW1TIETON-RIMROCK LAKE NEAR RIMROCK10-07-2019INFLOW (KAF)536582
103PDTO3UMATILLA-AT PENDLETON10-07-2019DISCHARGE (KAF)566487
104GIBO3UMATILLA-NEAR GIBBON10-07-2019DISCHARGE (KAF)222977
105UMAO3UMATILLA-NEAR UMATILLA10-07-2019DISCHARGE (KAF)9666146
106TCHW1WALLA WALLA-NEAR TOUCHET10-07-2019DISCHARGE (KAF)10094106
107WSRI1WEISER-NEAR WEISER10-07-2019DISCHARGE (KAF)446567
108PESW1WENATCHEE-AT PESHASTIN10-07-2019DISCHARGE (KAF)26129090
109UNDW1WHITE SALMON-NEAR UNDERWOOD10-07-2019DISCHARGE (KAF)21521998
110RIDI1WILLOW CREEK-RIRIE DAM10-07-2019INFLOW (KAF)128142
111EASW1YAKIMA-AT EASTON10-07-2019DISCHARGE (KAF)486475
112KIOW1YAKIMA-AT KIONA10-07-2019DISCHARGE (KAF)47565572
113UMTW1YAKIMA-AT UMTANUM10-07-2019DISCHARGE (KAF)18824577
114KEDW1YAKIMA-KEECHELUS LAKE10-07-2019INFLOW (KAF)495099
115PARW1YAKIMA-NEAR PARKER10-07-2019DISCHARGE (KAF)31841577